MDT,Max TemperatureF,Mean TemperatureF,Min TemperatureF,Max Dew PointF,MeanDew PointF,Min DewpointF,Max Humidity, Mean Humidity, Min Humidity, Max Sea Level PressureIn, Mean Sea Level PressureIn, Min Sea Level PressureIn, Max VisibilityMiles, Mean VisibilityMiles, Min VisibilityMiles, Max Wind SpeedMPH, Mean Wind SpeedMPH, Max Gust SpeedMPH,PrecipitationIn, CloudCover, Events, WindDirDegrees
2013-4-1,57,40,23,25,22,17,81,56,30,30.20,30.13,30.06,10,10,10,17,8,22,0.00,0,,117
2013-4-2,60,42,24,30,24,19,88,54,20,30.14,30.09,30.03,10,10,10,16,7,23,0.00,0,,124
2013-4-3,70,47,24,35,24,14,92,52,12,30.13,30.03,29.92,10,10,10,24,7,31,T,2,,70
2013-4-4,71,53,34,37,30,24,82,50,17,30.12,29.99,29.83,10,10,10,24,9,30,T,1,Rain,122
2013-4-5,72,57,42,39,29,21,71,43,15,29.81,29.68,29.54,10,10,5,28,13,36,0.00,3,,254
2013-4-6,67,51,35,35,27,21,85,52,19,29.83,29.78,29.73,10,10,10,20,8,25,0.00,1,,291
2013-4-7,66,55,43,31,28,22,57,38,19,29.72,29.62,29.54,10,10,10,32,13,44,0.00,2,,260
2013-4-8,57,37,17,35,31,27,92,62,32,29.75,29.62,29.53,10,8,0,35,12,44,0.03,3,Fog-Rain-Snow,359
2013-4-9,15,14,13,16,10,8,92,83,73,30.41,30.18,29.97,10,2,0,33,15,39,0.18,8,Fog-Snow,342
2013-4-10,25,17,9,14,11,7,92,76,60,30.38,30.19,30.02,10,7,1,20,9,23,0.02,5,Snow,313
2013-4-11,43,23,2,32,18,-1,95,79,62,30.02,29.93,29.86,10,10,10,23,8,29,0.00,4,,302
2013-4-12,44,36,27,34,31,26,100,77,53,30.05,29.96,29.91,10,7,1,21,5,24,0.15,6,Rain-Snow,318
2013-4-13,55,42,28,35,31,26,92,69,46,29.99,29.62,29.42,10,10,10,15,9,24,T,5,,126
2013-4-14,44,35,26,34,23,12,89,59,28,29.81,29.60,29.42,10,10,4,30,17,40,T,3,Snow,306
2013-4-15,34,28,22,23,16,13,77,60,43,30.12,29.97,29.82,10,10,10,17,8,21,T,6,,17
2013-4-16,28,27,25,27,25,21,100,92,84,30.19,30.04,29.96,9,2,0,29,16,35,0.17,8,Fog-Snow,96
2013-4-17,26,21,16,25,21,15,92,87,81,30.29,30.12,30.02,10,3,0,23,13,26,0.12,8,Fog-Snow,19
2013-4-18,32,23,14,18,15,11,88,71,53,30.26,30.20,30.09,10,10,10,28,13,35,T,2,,314
2013-4-19,49,36,22,30,23,14,74,57,39,30.14,30.03,29.91,10,10,10,15,8,21,0.00,2,,288
2013-4-20,58,46,33,38,34,30,89,65,40,29.92,29.89,29.85,10,10,10,24,6,30,0.04,6,Rain-Thunderstorm,250
2013-4-21,59,47,34,38,34,29,92,63,33,30.03,29.96,29.91,10,10,10,32,8,39,T,4,,311
2013-4-22,41,32,22,39,24,15,93,75,56,30.46,30.16,29.83,10,9,2,38,16,45,T,8,Snow,39
2013-4-23,45,31,17,19,15,12,92,61,29,30.44,30.29,30.16,10,10,10,16,6,22,0.00,3,,320
2013-4-24,53,37,21,24,19,14,88,55,22,30.22,30.17,30.15,10,10,10,30,12,40,0.00,1,,318
2013-4-25,70,48,26,27,15,1,78,43,7,30.16,29.95,29.79,10,10,10,24,10,31,0.00,0,,232
2013-4-26,72,51,30,26,19,13,72,42,11,30.11,30.07,29.96,10,10,10,14,5,20,0.00,0,,287
2013-4-27,78,55,32,29,23,15,69,40,10,30.10,29.97,29.82,10,10,10,18,8,25,0.00,0,,294
2013-4-28,75,58,40,36,29,26,64,40,16,29.83,29.78,29.74,10,10,10,25,11,32,T,1,,349
2013-4-29,80,58,36,39,27,18,92,52,12,29.83,29.60,29.41,10,10,5,39,15,47,0.00,0,,265
2013-4-30,67,50,32,36,32,23,100,68,36,30.11,29.88,29.55,10,7,1,35,8,40,0.44,6,Rain-Snow,3